This demonstration page uses our WeatherBlox Daily Observations layout. Learn more.

39.29038, -76.61219

Hourly Observations for June 1, 2020

Temp ( °F °C ) Dew Point ( °F °C ) Humidity (%) Winds ( mph kmh ) Pressure ( in mb ) Visibility ( mi km ) Precip ( " mm )
12:54 am 00:54 undefined 62 16.7 38 3.3 41 41 undefined N/A 30.2 1023 N/A 0 0
1:54 am 01:54 undefined 61 16.1 38 3.3 43 43 undefined N/A 30.22 1024 N/A 0 0
2:54 am 02:54 undefined 59 15 37 2.8 44 44 undefined N/A 30.24 1024 N/A 0 0
3:54 am 03:54 undefined 58 14.4 37 2.8 46 46 undefined N/A 30.25 1025 N/A 0 0
4:54 am 04:54 undefined 57 13.9 37 2.8 47 47 undefined N/A 30.27 1025 N/A 0 0
5:54 am 05:54 undefined 57 13.9 36 2.2 45 45 undefined N/A 30.28 1026 N/A 0 0
6:54 am 06:54 undefined 58 14.4 36 2.2 44 44 undefined N/A 30.31 1026 N/A 0 0
7:54 am 07:54 undefined 61 16.1 37 2.8 41 41 undefined N/A 30.32 1027 N/A 0 0
8:54 am 08:54 undefined 63 17.2 36 2.2 37 37 undefined N/A 30.33 1027 N/A 0 0
9:54 am 09:54 undefined 64 17.8 38 3.3 38 38 undefined N/A 30.32 1027 N/A 0 0
10:54 am 10:54 undefined 67 19.4 38 3.3 35 35 undefined N/A 30.3 1026 N/A 0 0
11:54 am 11:54 undefined 69 20.6 39 3.9 33 33 undefined N/A 30.28 1025 N/A 0 0
12:54 pm 12:54 undefined 69 20.6 39 3.9 33 33 undefined N/A 30.25 1025 N/A 0 0
1:54 pm 13:54 undefined 72 22.2 38 3.3 29 29 undefined N/A 30.22 1023 N/A 0 0
2:54 pm 14:54 undefined 73 22.8 39 3.9 29 29 undefined N/A 30.21 1023 N/A 0 0
3:54 pm 15:54 undefined 75 23.9 40 4.4 28 28 undefined N/A 30.18 1022 N/A 0 0
4:54 pm 16:54 undefined 73 22.8 39 3.9 29 29 undefined N/A 30.17 1022 N/A 0 0
5:54 pm 17:54 undefined 73 22.8 39 3.9 29 29 undefined N/A 30.15 1021 N/A 0 0
6:54 pm 18:54 undefined 73 22.8 39 3.9 29 29 undefined N/A 30.14 1021 N/A 0 0
7:54 pm 19:54 undefined 72 22.2 39 3.9 30 30 undefined N/A 30.14 1021 N/A 0 0
8:54 pm 20:54 undefined 70 21.1 41 5 35 35 undefined N/A 30.14 1021 N/A 0 0
9:54 pm 21:54 undefined 68 20 41 5 38 38 undefined N/A 30.16 1021 N/A 0 0
10:54 pm 22:54 undefined 66 18.9 42 5.6 42 42 undefined N/A 30.18 1022 N/A 0 0
11:54 pm 23:54 undefined 64 17.8 42 5.6 45 45 undefined N/A 30.17 1022 N/A 0 0

Powered by AerisWeather